OK6FS-6 Weather Reports


Display with metric or nautical units.
time (UTC)temp
F
wind
direction
speed
MPH
gust
MPH
rain 1hr
in
rain 24hr
in
rain mn
in
humidity
%
barometer
mb
20260905190334 72 296 1.0 2.0 0.00 0.00 0.00 51 1023.5
20260905185143 72 300 0.0 1.0 0.00 0.00 0.00 50 1023.2
20260905183959 73 302 1.0 2.0 0.00 0.00 0.00 50 1023.1
20260905182747 73 303 1.0 2.0 0.00 0.00 0.00 49 1022.9
20260905181525 73 308 1.0 2.0 0.00 0.00 0.00 49 1022.7
20260905180342 74 307 1.0 2.0 0.00 0.00 0.00 48 1022.7
20260905175200 74 302 2.0 3.0 0.00 0.00 0.00 47 1022.5
20260905174008 75 297 2.0 5.0 0.00 0.00 0.00 46 1022.2
20260905172815 0 0.0 0.0 0.00 0.00 0.00
20260905172422 0 0.0 0.0 0.00 0.00 0.00
20260905171234 77 290 3.0 4.0 0.00 0.00 0.00 44 1022.2
20260905170041 77 306 5.0 8.0 0.00 0.00 0.00 43 1022.1
20260905164829 77 321 3.0 4.0 0.00 0.00 0.00 43 1022.0
20260905163656 77 302 5.0 9.0 0.00 0.00 0.00 42 1021.9
20260905162443 77 290 6.0 9.0 0.00 0.00 0.00 41 1021.8
20260905161250 78 311 5.0 8.0 0.00 0.00 0.00 41 1021.7
20260905160047 78 310 4.0 7.0 0.00 0.00 0.00 41 1021.8
20260905154834 78 300 6.0 8.0 0.00 0.00 0.00 41 1021.7
20260905153642 79 314 7.0 11.0 0.00 0.00 0.00 41 1021.6
20260905152439 79 294 6.0 19.0 0.00 0.00 0.00 42 1021.4
20260905151227 79 285 7.0 11.0 0.00 0.00 0.00 43 1021.5
20260905150035 80 301 6.0 11.0 0.00 0.00 0.00 42 1021.4
20260905144833 80 304 6.0 11.0 0.00 0.00 0.00 43 1021.4
20260905143650 81 305 4.0 6.0 0.00 0.00 0.00 43 1021.3
20260905142438 81 312 4.0 6.0 0.00 0.00 0.00 42 1021.2
20260905141246 81 283 7.0 15.0 0.00 0.00 0.00 42 1021.2
20260905140033 81 308 5.0 11.0 0.00 0.00 0.00 41 1021.4
20260905134841 81 292 6.0 9.0 0.00 0.00 0.00 40 1021.4
20260905133649 81 307 5.0 9.0 0.00 0.00 0.00 40 1021.5
20260905132427 81 315 5.0 8.0 0.00 0.00 0.00 40 1021.6
20260905131235 81 290 6.0 9.0 0.00 0.00 0.00 39 1021.7
20260905130032 81 307 6.0 9.0 0.00 0.00 0.00 40 1021.9
20260905124829 80 310 8.0 15.0 0.00 0.00 0.00 40 1021.9
20260905123626 80 285 7.0 12.0 0.00 0.00 0.00 42 1021.9
20260905122443 80 283 8.0 16.0 0.00 0.00 0.00 41 1021.9
20260905121230 80 293 6.0 18.0 0.00 0.00 0.00 43 1021.9
20260905120027 80 296 8.0 17.0 0.00 0.00 0.00 43 1022.1
20260905114834 80 311 5.0 7.0 0.00 0.00 0.00 44 1022.0
20260905113642 80 306 7.0 7.0 0.00 0.00 0.00 45 1022.3
20260905093335 71 283 4.0 7.0 0.00 0.00 0.00 61 1023.0
20260905092142 70 265 7.0 12.0 0.00 0.00 0.00 64 1023.2
20260905090939 70 271 7.0 11.0 0.00 0.00 0.00 66 1023.1
20260905085716 0 0.0 0.0 0.00 0.00 0.00
20260905084535 68 281 6.0 9.0 0.00 0.00 0.00 70 1023.4
20260905083331 68 280 3.0 4.0 0.00 0.00 0.00 73 1023.5
20260905082127 67 277 3.0 6.0 0.00 0.00 0.00 75 1023.6
20260905080945 66 316 1.0 3.0 0.00 0.00 0.00 76 1023.3
20260905075743 66 274 3.0 5.0 0.00 0.00 0.00 75 1022.8
20260905074528 66 230 3.0 5.0 0.00 0.00 0.00 75 1022.2
20260905073334 66 266 2.0 4.0 0.00 0.00 0.00 73 1021.8
20260905072135 67 249 3.0 5.0 0.00 0.00 0.00 73 1021.8
20260905070930 67 224 2.0 4.0 0.00 0.00 0.00 74 1021.6
20260905065757 66 244 3.0 4.0 0.00 0.00 0.00 73 1022.0
20260905064531 67 318 2.0 2.0 0.00 0.00 0.00 70 1022.1
20260905063336 67 322 3.0 4.0 0.00 0.00 0.00 70 1022.3
20260905062131 67 303 2.0 5.0 0.00 0.00 0.00 71 1022.6
20260905060946 67 315 1.0 2.0 0.00 0.00 0.00 72 1022.5
20260905055733 66 289 2.0 4.0 0.00 0.00 0.00 73 1022.2
20260905054600 67 245 3.0 5.0 0.00 0.00 0.00 74 1022.2
20260905053325 68 300 2.0 3.0 0.00 0.00 0.00 72 1021.6
20260905052141 69 300 2.0 3.0 0.00 0.00 0.00 68 1021.4
20260905051002 69 319 2.0 3.0 0.00 0.00 0.00 67 1021.4
20260905045738 69 321 2.0 3.0 0.00 0.00 0.00 66 1021.2
20260905044555 69 326 1.0 2.0 0.00 0.00 0.00 64 1020.7
20260905043353 70 321 2.0 3.0 0.00 0.00 0.00 62 1020.6
20260905042129 70 316 3.0 4.0 0.00 0.00 0.00 59 1020.3
20260905040956 70 291 3.0 4.0 0.00 0.00 0.00 57 1020.4
20260905035733 70 313 3.0 4.0 0.00 0.00 0.00 56 1019.9
20260905034531 71 328 4.0 6.0 0.00 0.00 0.00 57 1019.4
20260905033323 71 320 2.0 4.0 0.00 0.00 0.00 57 1019.1
20260905032130 71 318 3.0 4.0 0.00 0.00 0.00 57 1018.8
20260905030957 71 319 3.0 4.0 0.00 0.00 0.00 57 1018.2
20260905025734 71 336 3.0 5.0 0.00 0.00 0.00 57 1017.9
20260905024531 72 334 2.0 4.0 0.00 0.00 0.00 57 1017.8
20260905023419 72 320 3.0 5.0 0.00 0.00 0.00 57 1017.8
20260905022145 72 329 2.0 4.0 0.00 0.00 0.00 57 1017.6
20260905020931 73 322 4.0 6.0 0.00 0.00 0.00 56 1017.6
20260905015757 73 355 5.0 10.0 0.00 0.00 0.00 56 1016.9
20260905014535 75 13 9.0 17.0 0.00 0.00 0.00 56 1016.9
20260905013357 75 318 2.0 4.0 0.00 0.00 0.00 55 1016.1
20260905012132 75 292 2.0 4.0 0.00 0.00 0.00 55 1015.6
20260905010935 75 304 1.0 2.0 0.00 0.00 0.00 55 1015.5
20260905005732 75 292 0.0 1.0 0.00 0.00 0.00 55 1015.3
20260905004545 75 299 0.0 1.0 0.00 0.00 0.00 55 1015.2
20260905003332 75 293 0.0 1.0 0.00 0.00 0.00 54 1015.2
20260905002129 75 301 1.0 2.0 0.00 0.00 0.00 54 1015.3
20260905000936 75 311 0.0 1.0 0.00 0.00 0.00 53 1015.1
20260904235743 75 310 1.0 1.0 0.00 0.00 0.00 53 1014.9
20260904234529 75 290 2.0 3.0 0.00 0.00 0.00 52 1014.9
20260904233347 76 289 1.0 2.0 0.00 0.00 0.00 52 1014.8
20260904232144 75 258 3.0 4.0 0.00 0.00 0.00 52 1014.8
20260904230931 75 273 2.0 4.0 0.00 0.00 0.00 53 1014.7
20260904225752 75 297 2.0 2.0 0.00 0.00 0.00 53 1014.6
20260904224533 74 288 1.0 2.0 0.00 0.00 0.00 54 1014.5
20260904223330 74 284 2.0 2.0 0.00 0.00 0.00 56 1014.5
20260904222137 74 0.0 0.0 0.00 0.00 0.00 56 1014.5
20260904220922 74 0.0 0.0 0.00 0.00 0.00 55 1014.4
20260904215726 74 0.0 0.0 0.00 0.00 0.00 55 1014.5
20260904214553 74 0 0.0 0.0 0.00 0.00 0.00 55 1014.5
20260904213329 74 0 0.0 1.0 0.00 0.00 0.00 55 1014.4
20260904212136 74 0.0 0.0 0.00 0.00 0.00 55 1014.4
20260904210943 74 338 0.0 0.0 0.00 0.00 0.00 54 1014.5
20260904205740 75 0 0.0 1.0 0.00 0.00 0.00 54 1014.5
20260904204547 76 0.0 0.0 0.00 0.00 0.00 54 1014.5
20260904203352 76 0.0 0.0 0.00 0.00 0.00 54 1014.7
20260904202137 77 0.0 0.0 0.00 0.00 0.00 53 1014.7
20260904200933 78 0.0 0.0 0.00 0.00 0.00 53 1014.7
20260904195730 78 0.0 0.0 0.00 0.00 0.00 52 1014.7
20260904194538 79 0.0 0.0 0.00 0.00 0.00 51 1014.7
20260904193343 80 0.0 0.0 0.00 0.00 0.00 49 1014.8
20260904192140 81 0.0 0.0 0.00 0.00 0.00 48 1014.7